This is the latest recevied weather packets stored in our database for station/object KC3UTO. If no packets are shown the sender has not sent any weather packets the latest 10 day(s).
| Time | Temp. | Humidity | Pressure | Rain* | Wind** | Luminosity | Snow |
|---|---|---|---|---|---|---|---|
| 1777262894 | 5.56° C | 94% | 1021.9 hPa | 0 mm | - | 0 W/m² | - |
| 1777262591 | 5.56° C | 94% | 1022 hPa | 0 mm | - | 0 W/m² | - |
| 1777262288 | 5.56° C | 94% | 1022.2 hPa | 0 mm | - | 0 W/m² | - |
| 1777261984 | 6.11° C | 94% | 1022.2 hPa | 0 mm | - | 0 W/m² | - |
| 1777261681 | 6.11° C | 94% | 1022.2 hPa | 0 mm | - | 0 W/m² | - |
| 1777261377 | 6.11° C | 93% | 1022 hPa | 0 mm | - | 0 W/m² | - |
| 1777261075 | 6.11° C | 93% | 1021.9 hPa | 0 mm | - | 0 W/m² | - |
| 1777260774 | 6.67° C | 94% | 1022.5 hPa | 0 mm | - | 0 W/m² | - |
| 1777260470 | 6.11° C | 93% | 1022.3 hPa | 0 mm | - | 0 W/m² | - |
| 1777260165 | 6.11° C | 93% | 1021.9 hPa | 0 mm | - | 0 W/m² | - |
| 1777259862 | 6.11° C | 93% | 1021.9 hPa | 0 mm | - | 0 W/m² | - |
| 1777259558 | 6.67° C | 93% | 1022 hPa | 0 mm | - | 0 W/m² | - |
| 1777259257 | 6.67° C | 92% | 1021.9 hPa | 0 mm | - | 0 W/m² | - |
| 1777258953 | 6.67° C | 92% | 1022 hPa | 0 mm | - | 0 W/m² | - |
| 1777258650 | 6.67° C | 92% | 1021.8 hPa | 0 mm | - | 0 W/m² | - |
| 1777258346 | 6.67° C | 91% | 1021.9 hPa | 0 mm | - | 0 W/m² | - |
| 1777258044 | 6.67° C | 91% | 1021.7 hPa | 0 mm | - | 0 W/m² | - |
| 1777257741 | 7.22° C | 91% | 1021.7 hPa | 0 mm | - | 0 W/m² | - |
| 1777257438 | 7.22° C | 91% | 1021.7 hPa | 0 mm | - | 0 W/m² | - |
| 1777257134 | 7.22° C | 90% | 1021.6 hPa | 0 mm | - | 0 W/m² | - |
| 1777256832 | 7.22° C | 90% | 1021.7 hPa | 0 mm | - | 0 W/m² | - |
| 1777256529 | 7.22° C | 89% | 1021.7 hPa | 0 mm | - | 0 W/m² | - |
| 1777256223 | 7.78° C | 88% | 1021.6 hPa | 0 mm | - | 0 W/m² | - |
| 1777255920 | 7.78° C | 88% | 1021.5 hPa | 0 mm | - | 0 W/m² | - |
| 1777255616 | 7.78° C | 88% | 1021.6 hPa | 0 mm | - | 0 W/m² | - |
* Rain latest hour (hover to see other rain measurements)
** Current wind speed in m/s (hover to see current wind gust speed)